Date String (YYYY-MM-DD hh:mm:ss) UTC,Instrument flags,Ambient pressure (hPa),Sample flow (lpm),Bypass flow (lpm),Sample temperature (°C),Ambient temperature (°C),ASC tube jacket temperature (°C),LED temperature (°C),Box temperature (°C),Sample RH (%),Span deviation,Mass concentration (μg/m³),Mass concentration (μg/m³),Mass concentration (μg/m³)
DateTimeUTC,F1_M11,P_M11,Q1_M11,Q2_M11,T1_M11,T2_M11,T3_M11,T4_M11,T5_M11,U1_M11,ZSPAN_M11,X2_M11,X0_M11,X1_M11
2022-11-21 16:00:00,,0830.3,5.02,0.00,22.8,21.7,00.0,31.5,24.7,08.9,0000.0,0003.15,0005.70,0002.88
2022-11-21 16:01:00,,0830.2,4.99,0.00,22.8,21.8,00.0,31.5,24.7,09.0,0000.0,0003.19,0006.18,0002.89
2022-11-21 16:02:00,,0830.2,5.00,0.00,22.8,21.8,00.0,31.6,24.7,09.1,0000.0,0003.22,0006.44,0002.91
2022-11-21 16:03:00,,0830.2,4.99,0.00,22.8,21.8,00.0,31.6,24.7,09.2,0000.0,0003.22,0006.30,0002.92
2022-11-21 16:04:00,,0830.3,5.02,0.00,22.9,21.8,00.0,31.6,24.7,09.3,0000.0,0003.20,0006.14,0002.94
2022-11-21 16:05:00,,0830.3,4.99,0.00,22.9,21.8,00.0,31.6,24.7,09.4,0000.0,0003.20,0006.12,0002.96
2022-11-21 16:06:00,,0830.3,4.99,0.00,22.9,21.9,00.0,31.6,24.8,09.6,0000.0,0003.21,0006.07,0002.97
2022-11-21 16:07:00,,0830.2,5.02,0.00,22.9,21.9,00.0,31.6,24.8,09.4,0000.0,0003.22,0006.08,0003.00
2022-11-21 16:08:00,,0830.3,4.98,0.00,22.9,21.9,00.0,31.7,24.8,09.3,0000.0,0003.22,0006.26,0003.00
2022-11-21 16:09:00,,0830.3,5.00,0.00,22.9,21.9,00.0,31.7,24.8,08.7,0000.0,0003.26,0006.32,0003.06
2022-11-21 16:10:00,,0830.3,5.00,0.00,22.9,21.9,00.0,31.7,24.8,08.9,0000.0,0003.27,0005.59,0003.11
2022-11-21 16:11:00,,0830.4,4.99,0.00,23.0,21.9,00.0,31.7,24.9,09.2,0000.0,0003.29,0005.47,0003.13
2022-11-21 16:12:00,,0830.3,5.03,0.00,23.0,22.0,00.0,31.7,24.9,09.0,0000.0,0003.29,0005.47,0003.14
2022-11-21 16:13:00,,0830.3,5.00,0.00,23.0,22.0,00.0,31.7,24.9,08.8,0000.0,0003.30,0005.25,0003.15
2022-11-21 16:14:00,,0830.4,5.00,0.00,23.0,22.0,00.0,31.8,24.9,09.1,0000.0,0003.30,0005.06,0003.17
2022-11-21 16:15:00,,0830.4,5.00,0.00,23.0,22.0,00.0,31.8,24.9,09.4,0000.0,0003.31,0005.09,0003.17
2022-11-21 16:16:00,,0830.4,4.99,0.00,23.0,22.0,00.0,31.8,24.9,09.6,0000.0,0003.33,0005.25,0003.18
2022-11-21 16:17:00,,0830.4,5.02,0.00,23.1,22.1,00.0,31.8,24.9,09.7,0000.0,0003.35,0005.95,0003.18
2022-11-21 16:18:00,,0830.4,5.00,0.00,23.1,22.1,00.0,31.8,25.0,09.9,0000.0,0003.32,0005.99,0003.15
2022-11-21 16:19:00,,0830.4,5.00,0.00,23.1,22.1,00.0,31.8,25.0,09.9,0000.0,0003.29,0006.00,0003.11
2022-11-21 16:20:00,,0830.4,4.99,0.00,23.1,22.1,00.0,31.9,25.0,09.8,0000.0,0003.28,0005.81,0003.07
2022-11-21 16:21:00,,0830.4,4.99,0.00,23.1,22.1,00.0,31.9,25.0,09.5,0000.0,0003.23,0005.29,0002.98
2022-11-21 16:22:00,,0830.3,5.02,0.00,23.2,22.2,00.0,31.9,25.0,09.1,0000.0,0003.17,0005.13,0002.90
2022-11-21 16:23:00,,0830.3,5.00,0.00,23.2,22.2,00.0,31.9,25.0,09.1,0000.0,0003.13,0004.97,0002.84
2022-11-21 16:24:00,,0830.3,4.98,0.00,23.2,22.2,00.0,31.9,25.0,08.9,0000.0,0003.04,0004.72,0002.78
2022-11-21 16:25:00,,0830.3,5.01,0.00,23.2,22.2,00.0,31.9,25.1,08.5,0000.0,0003.01,0004.71,0002.74
2022-11-21 16:26:00,,0830.3,5.01,0.00,23.2,22.2,00.0,32.0,25.1,08.5,0000.0,0002.95,0004.70,0002.69
2022-11-21 16:27:00,,0830.3,4.99,0.00,23.2,22.3,00.0,32.0,25.1,09.2,0000.0,0002.88,0004.53,0002.63
2022-11-21 16:28:00,,0830.3,5.02,0.00,23.3,22.3,00.0,32.0,25.1,07.8,0000.0,0002.86,0004.31,0002.63
2022-11-21 16:29:00,,0830.3,4.99,0.00,23.3,22.3,00.0,32.0,25.1,08.2,0000.0,0002.94,0004.45,0002.69
2022-11-21 16:30:00,,0830.3,5.01,0.00,23.3,22.3,00.0,32.0,25.1,08.2,0000.0,0003.05,0004.58,0002.80
2022-11-21 16:31:00,,0830.2,5.00,0.00,23.3,22.3,00.0,32.0,25.2,08.4,0000.0,0003.10,0004.60,0002.86
2022-11-21 16:32:00,,0830.2,5.00,0.00,23.3,22.4,00.0,32.0,25.2,08.5,0000.0,0003.15,0004.74,0002.93
2022-11-21 16:33:00,,0830.2,5.00,0.00,23.4,22.4,00.0,32.1,25.2,08.4,0000.0,0003.19,0004.85,0002.98
2022-11-21 16:34:00,,0830.3,5.00,0.00,23.4,22.4,00.0,32.1,25.2,08.0,0000.0,0003.24,0004.97,0003.04
2022-11-21 16:35:00,,0830.3,5.00,0.00,23.4,22.4,00.0,32.1,25.3,07.6,0000.0,0003.28,0005.06,0003.10
2022-11-21 16:36:00,,0830.3,5.00,0.00,23.4,22.4,00.0,32.1,25.3,08.0,0000.0,0003.29,0004.98,0003.13
2022-11-21 16:37:00,,0830.3,5.01,0.00,23.4,22.5,00.0,32.1,25.3,07.8,0000.0,0003.32,0004.94,0003.16
2022-11-21 16:38:00,,0830.3,5.01,0.00,23.5,22.5,00.0,32.2,25.3,08.2,0000.0,0003.36,0005.01,0003.21
2022-11-21 16:39:00,,0830.3,5.00,0.00,23.5,22.5,00.0,32.2,25.4,08.5,0000.0,0003.41,0004.73,0003.24
2022-11-21 16:40:00,,0830.3,5.00,0.00,23.5,22.5,00.0,32.2,25.4,08.6,0000.0,0003.43,0004.67,0003.26
2022-11-21 16:41:00,,0830.2,4.99,0.00,23.5,22.6,00.0,32.2,25.4,08.7,0000.0,0003.43,0004.66,0003.26
2022-11-21 16:42:00,,0830.2,5.00,0.00,23.5,22.6,00.0,32.2,25.4,08.4,0000.0,0003.45,0004.79,0003.28
2022-11-21 16:43:00,,0830.3,5.00,0.00,23.5,22.6,00.0,32.3,25.4,08.9,0000.0,0003.48,0004.85,0003.29
2022-11-21 16:44:00,,0830.2,5.00,0.00,23.6,22.6,00.0,32.3,25.5,08.6,0000.0,0003.50,0004.91,0003.32
2022-11-21 16:45:00,,0830.2,5.01,0.00,23.6,22.6,00.0,32.3,25.5,08.8,0000.0,0003.49,0004.84,0003.32
2022-11-21 16:46:00,,0830.2,5.01,0.00,23.6,22.7,00.0,32.3,25.5,08.5,0000.0,0003.51,0004.88,0003.34
2022-11-21 16:47:00,,0830.3,5.01,0.00,23.6,22.7,00.0,32.3,25.5,08.5,0000.0,0003.55,0004.97,0003.36
2022-11-21 16:48:00,,0830.2,5.00,0.00,23.6,22.7,00.0,32.4,25.5,08.3,0000.0,0003.58,0005.07,0003.38
2022-11-21 16:49:00,,0830.2,4.99,0.00,23.7,22.7,00.0,32.4,25.5,08.3,0000.0,0003.59,0005.11,0003.40
2022-11-21 16:50:00,,0830.3,5.00,0.00,23.7,22.8,00.0,32.4,25.5,08.2,0000.0,0003.60,0005.17,0003.41
2022-11-21 16:51:00,,0830.2,5.00,0.00,23.7,22.8,00.0,32.4,25.6,08.2,0000.0,0003.63,0005.18,0003.44
2022-11-21 16:52:00,,0830.2,4.99,0.00,23.7,22.8,00.0,32.4,25.6,08.4,0000.0,0003.66,0005.17,0003.47
2022-11-21 16:53:00,,0830.3,5.00,0.00,23.7,22.8,00.0,32.5,25.6,08.4,0000.0,0003.69,0005.10,0003.51
2022-11-21 16:54:00,,0830.2,5.00,0.00,23.8,22.8,00.0,32.5,25.6,08.6,0000.0,0003.73,0005.10,0003.55
2022-11-21 16:55:00,,0830.3,5.00,0.00,23.8,22.9,00.0,32.5,25.6,08.8,0000.0,0003.80,0005.23,0003.61
2022-11-21 16:56:00,,0830.2,5.00,0.00,23.8,22.9,00.0,32.5,25.7,08.9,0000.0,0003.86,0005.34,0003.68
2022-11-21 16:57:00,,0830.2,5.00,0.00,23.8,22.9,00.0,32.5,25.7,08.8,0000.0,0003.92,0005.58,0003.74
2022-11-21 16:58:00,,0830.2,5.00,0.00,23.9,22.9,00.0,32.6,25.7,08.9,0000.0,0003.97,0005.78,0003.79
2022-11-21 16:59:00,,0830.2,5.01,0.00,23.9,22.9,00.0,32.6,25.7,09.0,0000.0,0004.06,0005.97,0003.86
